Overview Statistics Trail Chart Weather Telemetry Raw packets
 

This is the latest recevied weather packets stored in our database for station/object N9DMT-13. If no packets are shown the sender has not sent any weather packets the latest 10 day(s).

<< 7 8 9 10 11 12 13 >>
Time Temp. Humidity Pressure Rain* Wind** Luminosity Snow
1777811057 12.78° C 62% 976.8 hPa 0 mm - - -
1777810756 12.78° C 60% 977.1 hPa 0 mm - - -
1777810455 12.22° C 63% 977.4 hPa 0 mm - - -
1777810154 12.22° C 61% 977.2 hPa 0 mm - - -
1777809854 12.22° C 59% 977.4 hPa 0 mm - - -
1777809553 12.22° C 59% 977.3 hPa 0 mm - - -
1777809252 12.22° C 60% 977.3 hPa 0 mm - - -
1777808951 12.22° C 60% 977.5 hPa 0 mm - - -
1777808651 11.67° C 60% 977.5 hPa 0 mm - - -
1777808350 11.67° C 61% 977.3 hPa 0 mm - - -
1777808049 11.67° C 62% 977.5 hPa 0 mm - - -
1777807749 11.67° C 61% 977.8 hPa 0 mm - - -
1777807448 11.11° C 62% 977.8 hPa 0 mm - - -
1777807147 11.11° C 62% 977.9 hPa 0 mm - - -
1777806846 11.67° C 62% 978.1 hPa 0 mm - - -
1777806545 11.67° C 61% 978 hPa 0 mm - - -
1777806245 11.67° C 61% 977.9 hPa 0 mm - - -
1777805944 11.11° C 61% 977.9 hPa 0 mm - - -
1777805644 11.11° C 61% 977.6 hPa 0 mm - - -
1777805343 10.56° C 63% 977.6 hPa 0 mm - - -
1777805042 10° C 64% 977.8 hPa 0 mm - - -
1777804741 9.44° C 68% 977.9 hPa 0 mm - - -
1777804440 8.89° C 66% 978.1 hPa 0 mm - - -
1777804139 9.44° C 70% 978 hPa 0 mm - - -
1777803839 9.44° C 63% 978 hPa 0 mm - - -

* Rain latest hour (hover to see other rain measurements)
** Current wind speed in m/s (hover to see current wind gust speed)